Wetbulb
46.21 47.32 47.48 47.86 47.54 47.91 47.70 47.28 46.66 46.60 46.84 47.45 47.42 47.34 48.15 48.67 49.01 50.31 50.42 57.92 60.46 61.85 62.74 62.84 62.84 63.10 63.34 63.61 64.00 64.48 64.97 65.22 65.86 67.86 68.29 68.51 68.33 68.28 68.36 68.53 68.91 69.19 69.11
45.81 46.44 46.55 46.52 47.39 47.45 47.23 46.85 45.31 44.74 44.86 45.58 44.43 45.41 46.80 48.34 49.34 49.98 51.25 52.20 56.82 58.08 59.65 60.66 60.94 61.31 61.89 62.43 62.98 63.11 63.58 64.22 64.93 65.49 66.12 66.91 67.59 67.94 67.77 68.19 68.15 68.62 68.91
44.67 44.27 44.37 43.37 44.61 46.48 46.16 45.37 44.97 43.52 43.42 43.44 40.87 43.76 46.62 47.90 48.79 50.46 51.26 51.52 50.96 53.47 56.52 57.87 58.58 59.36 60.30 61.23 61.83 61.38 61.20 61.78 62.36 63.02 63.82 64.81 65.40 65.72 65.93 67.36 67.88 68.27 68.29
41.73 40.77 40.72 40.08 41.04 43.42 41.91 41.04 42.78 41.41 41.84 41.21 40.15 42.28 45.31 47.65 49.06 50.55 50.38 50.14 49.86 48.55 50.19 53.60 54.87 56.48 57.82 59.33 60.13 60.78 61.06 61.74 61.71 61.35 61.95 63.00 63.55 64.04 64.39 64.79 66.77 67.13 67.93
40.76 39.20 38.40 38.57 38.92 39.38 37.85 37.78 39.01 39.89 39.97 40.41 40.95 42.87 44.80 46.71 48.74 49.97 48.43 47.94 48.01 46.81 45.31 47.11 47.98 49.95 53.75 56.02 57.38 58.77 59.35 59.83 60.73 61.59 62.27 62.79 63.09 63.53 63.84 64.48 65.78 66.29 66.79
38.97 37.43 36.96 36.61 37.38 36.93 36.33 35.99 35.96 38.28 39.65 39.95 41.96 42.61 44.41 45.17 48.20 47.21 47.05 47.82 46.85 46.84 45.40 43.51 41.72 42.07 47.48 50.40 52.07 54.32 56.59 57.87 59.61 60.64 61.61 61.61 62.33 62.48 62.93 63.56 64.08 64.56 65.39
39.12 36.52 35.65 35.32 35.96 35.45 34.79 35.56 36.05 35.82 37.36 39.65 38.71 38.70 41.93 44.24 44.94 44.54 45.02 45.99 45.96 45.82 44.51 42.94 40.80 40.02 40.33 46.18 47.92 50.26 53.21 55.42 58.44 60.46 60.44 61.07 60.76 60.90 61.64 62.45 62.75 62.47 62.70
39.75 38.13 35.44 34.91 35.00 35.25 34.58 34.38 34.94 34.89 35.38 38.55 37.39 37.24 34.56 36.94 41.49 43.21 41.96 40.69 42.89 44.59 43.71 42.53 41.42 39.62 39.16 39.96 43.41 47.13 49.71 52.33 55.43 58.29 59.22 58.88 58.95 59.39 60.05 60.86 61.50 61.61 61.73
40.04 38.67 36.34 35.30 34.65 35.22 34.40 34.05 34.54 34.43 33.81 35.80 38.27 35.45 30.16 30.41 35.90 39.81 42.13 39.67 37.45 41.88 41.52 41.39 40.75 39.65 38.77 38.62 41.29 42.54 46.97 49.16 52.60 55.35 56.58 56.68 56.41 57.26 58.24 59.25 60.29 60.56 60.12
39.54 39.10 38.24 36.08 35.03 34.92 34.42 34.27 37.20 35.28 35.39 33.76 36.47 39.73 38.56 38.39 34.37 31.74 37.08 38.07 36.98 40.56 38.61 40.37 38.76 38.61 37.60 37.15 40.56 43.05 45.03 47.33 50.40 53.02 54.07 54.14 53.93 54.49 55.90 57.06 58.69 58.18 57.76
39.50 38.70 38.20 36.57 35.23 35.05 34.80 34.32 34.23 33.97 34.84 34.82 35.26 35.69 35.89 36.52 36.61 34.43 32.22 33.83 34.70 36.92 39.40 40.18 37.84 36.10 36.42 35.95 37.03 40.61 43.78 46.17 48.59 50.82 51.83 52.25 52.03 52.49 53.32 54.57 55.32 54.83 55.48
39.62 38.63 38.14 36.92 35.89 34.91 34.08 34.09 34.42 34.09 33.85 34.17 34.63 35.87 35.58 33.23 32.21 33.87 31.67 30.22 31.97 34.86 36.08 38.72 35.25 34.92 35.29 35.00 38.52 42.23 42.32 44.52 46.68 48.81 49.97 50.35 49.49 49.79 50.59 51.28 51.58 51.92 52.82
39.16 39.21 37.85 36.59 35.63 35.30 35.12 34.50 34.35 33.99 33.30 32.91 32.65 33.57 35.38 35.41 35.34 34.68 33.14 31.71 31.94 34.27 35.92 39.30 34.97 34.07 35.88 34.31 35.74 41.46 40.60 42.93 44.51 46.96 48.25 48.20 46.97 46.82 47.77 48.59 49.09 49.54 50.44
40.05 39.89 38.93 37.19 36.13 35.57 34.85 34.24 33.60 33.67 33.18 32.89 32.04 31.99 33.85 35.25 35.69 35.48 34.43 31.99 29.63 30.74 33.01 33.23 34.59 34.78 33.49 34.09 37.18 40.84 34.84 40.89 42.51 43.95 45.76 45.35 44.81 44.73 45.25 46.03 46.25 46.88 47.39
40.95 40.02 39.18 38.05 36.57 35.29 34.57 33.64 33.00 32.76 32.66 32.62 32.42 31.77 31.73 33.18 33.81 33.94 34.35 34.38 31.88 28.65 28.41 30.42 31.17 32.40 32.91 33.68 35.27 34.12 33.27 38.71 40.59 41.58 42.58 43.57 43.21 43.30 43.60 44.36 44.22 44.38 44.76
39.73 39.46 39.00 37.80 36.70 35.41 34.29 33.18 32.50 32.58 31.98 32.62 33.23 32.08 31.64 32.19 32.30 32.66 33.01 33.18 33.36 32.08 28.60 30.37 30.35 30.78 32.42 34.64 35.01 32.85 32.59 38.04 38.39 39.92 40.95 41.55 42.48 42.55 42.34 42.70 43.18 42.98 43.14
39.70 39.31 39.08 38.32 37.18 35.85 34.53 32.99 32.66 32.42 31.98 32.17 32.14 31.95 32.05 31.66 31.59 31.85 31.81 31.95 32.11 31.93 30.21 31.72 30.95 31.26 30.68 30.72 31.49 31.35 32.48 31.92 31.66 37.72 39.75 40.58 41.89 40.81 41.14 41.66 41.94 41.62 41.75
39.43 39.13 38.75 37.89 37.29 36.54 35.52 33.28 33.17 34.05 31.56 31.61 31.92 31.63 32.02 33.39 30.75 30.97 30.98 30.58 31.38 31.18 31.00 29.63 28.65 29.02 29.31 30.05 29.96 29.13 31.90 33.87 30.73 35.51 39.18 39.73 40.03 40.11 39.87 40.23 40.81 40.40 40.02
38.66 38.65 38.17 37.24 36.95 36.56 35.14 34.07 33.85 33.91 32.73 32.56 32.28 31.27 31.94 30.88 30.84 30.45 30.93 31.39 30.44 31.60 29.23 28.84 28.64 27.98 27.98 28.06 28.09 28.61 28.88 29.58 32.09 36.14 37.26 38.23 38.24 38.93 38.76 38.99 40.04 39.01 38.35
36.78 36.94 37.46 37.55 37.10 36.81 36.42 35.38 34.27 33.02 32.91 32.92 32.69 32.23 32.13 31.32 31.25 30.63 30.82 31.39 31.22 29.48 28.00 28.03 27.98 27.71 27.19 28.17 27.51 27.29 27.15 28.10 28.47 32.27 33.71 35.71 37.02 37.19 36.65 37.38 37.70 36.81 37.53
35.08 35.32 35.98 36.57 36.53 36.43 36.82 34.92 33.95 33.57 32.50 32.20 32.22 32.06 32.28 33.36 35.96 34.94 32.39 31.61 31.27 28.73 28.32 27.63 27.22 26.85 26.85 26.89 26.85 27.47 27.21 27.18 27.59 28.48 29.08 29.19 29.68 29.74 30.03 33.37 33.75 35.52 37.00
33.24 33.52 33.69 34.12 34.85 36.40 39.65 41.09 41.32 37.76 32.74 31.86 31.43 31.13 31.70 35.88 36.45 38.78 39.07 37.74 33.75 30.47 29.23 27.93 27.34 26.64 26.66 26.89 26.87 27.11 26.61 25.13 26.99 28.63 27.35 28.25 28.40 27.75 29.29 30.01 34.38 36.02 36.96
32.58 32.43 32.56 33.20 33.60 34.39 38.94 40.01 40.64 38.94 37.87 33.98 31.58 31.52 30.85 32.49 35.26 33.56 38.43 39.81 39.21 37.96 35.64 30.41 27.91 27.17 26.42 27.39 27.31 26.55 26.23 26.23 29.04 29.05 27.64 27.74 27.20 26.71 29.03 30.71 34.07 36.06 36.26
31.86 31.94 32.15 32.44 32.71 33.89 38.24 39.05 39.62 37.26 37.02 37.01 33.58 31.98 30.85 30.90 31.69 33.38 33.61 34.29 35.73 35.49 36.64 36.27 31.48 31.53 29.93 29.18 28.53 28.50 27.88 31.43 29.08 28.92 28.86 24.47 25.89 25.83 28.51 28.93 32.78 36.06 36.04
30.89 31.00 31.81 31.66 31.67 32.50 36.94 38.12 37.67 35.18 35.10 35.05 35.15 32.44 31.24 30.95 34.74 37.50 33.04 31.92 31.33 31.76 35.35 37.79 35.98 35.44 35.67 36.16 34.64 31.88 30.56 24.51 24.26 25.98 27.17 25.78 25.92 25.40 26.46 26.86 28.70 32.37 34.06
30.16 31.10 30.97 31.47 33.30 32.38 35.64 36.95 36.87 34.98 34.08 34.15 34.57 33.21 36.49 34.51 36.33 37.51 34.46 31.51 30.06 29.97 30.25 29.33 29.75 33.93 35.62 33.57 36.82 31.67 28.11 24.84 24.55 23.27 26.43 24.91 25.99 24.83 22.89 26.16 26.93 27.66 27.94
MSLP
1021.36 1021.18 1021.05 1020.84 1020.59 1020.46 1020.37 1020.24 1020.02 1019.73 1019.44 1019.12 1018.81 1018.62 1018.38 1018.05 1017.73 1017.42 1017.16 1016.71 1016.33 1016.05 1015.88 1015.79 1015.66 1015.51 1015.34 1015.13 1014.91 1014.70 1014.44 1014.23 1014.05 1013.90 1013.83 1013.77 1013.82 1013.86 1013.83 1013.85 1013.95 1014.00 1014.17
1021.52 1021.47 1021.33 1021.08 1020.88 1020.77 1020.60 1020.42 1020.22 1019.93 1019.68 1019.34 1018.97 1018.71 1018.46 1018.12 1017.82 1017.56 1017.39 1017.28 1017.02 1016.76 1016.40 1016.20 1016.07 1015.89 1015.52 1015.18 1014.85 1014.57 1014.40 1014.20 1013.98 1013.78 1013.57 1013.43 1013.32 1013.31 1013.34 1013.30 1013.38 1013.46 1013.49
1021.74 1021.45 1021.58 1021.37 1021.17 1020.94 1020.73 1020.48 1020.12 1019.96 1019.84 1019.43 1019.20 1018.79 1018.44 1018.17 1017.95 1017.81 1017.74 1017.67 1017.63 1017.44 1017.09 1016.84 1016.56 1016.22 1015.82 1015.43 1015.08 1014.85 1014.61 1014.37 1014.10 1013.85 1013.64 1013.42 1013.24 1013.06 1012.96 1012.90 1012.83 1012.88 1012.89
1021.83 1021.57 1021.70 1021.65 1021.40 1021.12 1021.01 1020.78 1020.50 1020.28 1020.18 1019.87 1019.48 1019.08 1018.81 1018.47 1018.24 1018.15 1018.10 1018.03 1017.98 1018.00 1017.87 1017.52 1017.18 1016.77 1016.33 1015.90 1015.59 1015.17 1014.82 1014.51 1014.09 1013.79 1013.49 1013.14 1012.92 1012.76 1012.62 1012.48 1012.33 1012.29 1012.26
1021.85 1021.73 1021.80 1021.84 1021.67 1021.44 1021.37 1021.26 1020.80 1020.59 1020.31 1019.96 1019.58 1019.19 1018.98 1018.79 1018.60 1018.47 1018.45 1018.37 1018.33 1018.31 1018.27 1018.09 1017.85 1017.51 1017.01 1016.58 1016.13 1015.66 1015.23 1014.83 1014.33 1013.76 1013.28 1012.89 1012.58 1012.40 1012.25 1011.94 1011.62 1011.52 1011.51
1021.89 1021.96 1021.92 1021.96 1021.82 1021.65 1021.59 1021.36 1021.13 1020.72 1020.54 1020.28 1019.73 1019.28 1019.03 1018.87 1018.71 1018.74 1018.60 1018.47 1018.53 1018.50 1018.47 1018.45 1018.39 1018.23 1017.75 1017.30 1016.79 1016.29 1015.68 1015.10 1014.44 1013.82 1013.25 1012.93 1012.57 1012.34 1011.99 1011.62 1011.33 1011.09 1010.99
1021.83 1021.85 1021.97 1021.98 1022.08 1022.07 1022.04 1021.76 1021.42 1021.19 1020.85 1020.44 1020.02 1019.68 1019.34 1019.14 1019.04 1018.92 1018.68 1018.65 1018.66 1018.62 1018.56 1018.56 1018.55 1018.52 1018.32 1017.79 1017.29 1016.68 1016.02 1015.37 1014.59 1013.75 1013.51 1013.09 1012.87 1012.59 1012.10 1011.63 1011.28 1011.07 1010.90
1021.76 1021.79 1021.97 1022.10 1022.12 1022.11 1022.02 1021.82 1021.77 1021.68 1021.46 1021.13 1021.10 1020.83 1020.30 1019.65 1019.23 1019.01 1018.94 1018.92 1018.91 1018.77 1018.72 1018.71 1018.74 1018.72 1018.60 1018.31 1017.75 1017.14 1016.43 1015.71 1014.90 1014.12 1013.70 1013.44 1013.15 1012.76 1012.42 1012.01 1011.38 1010.96 1010.76
1021.56 1021.62 1021.73 1021.91 1021.95 1022.07 1022.07 1021.95 1021.82 1021.78 1021.81 1021.37 1021.24 1021.35 1020.99 1020.90 1020.43 1019.43 1019.30 1019.21 1019.10 1018.94 1018.86 1018.82 1018.82 1018.77 1018.64 1018.43 1017.97 1017.49 1016.78 1016.10 1015.31 1014.53 1014.04 1013.72 1013.43 1012.92 1012.47 1012.03 1011.57 1011.26 1010.89
1021.47 1021.42 1021.49 1021.63 1021.76 1021.78 1021.78 1021.64 1021.53 1021.63 1021.71 1021.75 1021.43 1021.26 1021.29 1021.25 1021.13 1020.30 1019.40 1019.37 1019.32 1019.07 1019.03 1018.93 1018.96 1018.79 1018.62 1018.41 1018.07 1017.58 1016.98 1016.35 1015.61 1014.90 1014.36 1013.90 1013.70 1013.24 1012.77 1012.12 1011.67 1011.53 1011.23
1021.31 1021.28 1021.31 1021.41 1021.51 1021.55 1021.57 1021.56 1021.47 1021.54 1021.63 1021.74 1021.73 1021.60 1021.52 1021.42 1021.43 1021.54 1020.76 1020.09 1019.56 1019.02 1018.87 1018.87 1018.89 1018.95 1018.64 1018.42 1018.12 1017.67 1017.19 1016.70 1016.04 1015.33 1014.63 1014.21 1014.04 1013.60 1012.94 1012.51 1012.06 1011.74 1011.36
1021.14 1020.99 1021.02 1021.11 1021.07 1021.17 1021.28 1021.26 1021.24 1021.30 1021.37 1021.49 1021.56 1021.63 1021.62 1021.58 1021.47 1021.47 1021.44 1020.59 1020.14 1019.26 1018.70 1018.66 1018.69 1018.71 1018.51 1018.34 1018.06 1017.65 1017.29 1016.83 1016.31 1015.66 1015.11 1014.68 1014.38 1014.01 1013.55 1012.99 1012.65 1012.25 1011.66
1020.80 1020.54 1020.59 1020.59 1020.62 1020.63 1020.65 1020.74 1020.86 1020.91 1020.99 1021.13 1021.10 1021.08 1020.99 1020.98 1020.97 1021.03 1021.09 1020.83 1020.47 1019.42 1018.82 1018.42 1018.55 1018.57 1018.38 1018.25 1018.01 1017.59 1017.43 1016.89 1016.51 1015.99 1015.48 1015.11 1014.90 1014.48 1013.95 1013.48 1013.06 1012.72 1012.23
1020.15 1019.97 1019.98 1019.94 1019.87 1019.86 1019.87 1019.89 1019.96 1019.98 1020.03 1020.09 1020.16 1020.21 1020.09 1019.98 1020.05 1020.16 1020.33 1020.57 1020.55 1020.05 1019.22 1018.62 1018.49 1018.50 1018.36 1018.15 1017.76 1017.42 1017.40 1016.83 1016.40 1016.17 1015.77 1015.43 1015.22 1014.79 1014.30 1013.82 1013.52 1013.05 1012.67
1019.50 1019.31 1019.24 1019.31 1019.22 1019.25 1019.29 1019.34 1019.47 1019.51 1019.62 1019.66 1019.68 1019.68 1019.71 1019.56 1019.64 1019.76 1019.89 1020.09 1020.42 1020.51 1019.84 1018.78 1018.63 1018.27 1018.19 1017.95 1017.71 1017.51 1017.32 1016.89 1016.38 1016.06 1015.80 1015.35 1015.10 1014.96 1014.52 1013.97 1013.67 1013.35 1012.92
1019.24 1019.12 1018.99 1018.87 1018.74 1018.68 1018.75 1018.93 1018.96 1018.88 1019.09 1019.02 1019.06 1019.19 1019.08 1018.99 1019.01 1019.15 1019.28 1019.39 1019.57 1019.83 1019.92 1018.76 1018.43 1018.09 1017.78 1017.58 1017.39 1017.23 1017.01 1016.63 1016.45 1016.07 1015.66 1015.26 1014.79 1014.71 1014.57 1014.17 1013.69 1013.43 1013.09
1018.97 1018.75 1018.49 1018.29 1018.16 1018.05 1017.97 1018.15 1018.12 1018.14 1018.24 1018.13 1018.12 1018.30 1018.16 1018.16 1018.24 1018.34 1018.55 1018.75 1018.96 1019.17 1019.19 1018.27 1017.97 1017.79 1017.67 1017.43 1017.19 1017.02 1016.78 1016.54 1016.35 1015.95 1015.44 1015.06 1014.60 1014.63 1014.42 1014.07 1013.80 1013.53 1013.18
1018.72 1018.46 1018.18 1017.98 1017.71 1017.44 1017.23 1017.25 1017.22 1017.05 1017.21 1017.13 1016.93 1017.19 1017.05 1017.19 1017.35 1017.42 1017.68 1017.84 1017.95 1018.06 1018.37 1018.05 1017.66 1017.52 1017.36 1017.02 1016.92 1016.85 1016.41 1016.12 1016.05 1015.57 1015.09 1014.76 1014.43 1014.42 1014.29 1013.96 1013.76 1013.57 1013.32
1018.47 1018.06 1017.87 1017.60 1017.23 1016.87 1016.57 1016.36 1016.24 1016.08 1015.95 1015.74 1015.64 1015.72 1015.59 1016.01 1016.15 1016.29 1016.47 1016.67 1016.88 1016.95 1017.29 1017.46 1017.28 1017.23 1016.96 1016.73 1016.66 1016.50 1016.32 1016.00 1015.69 1015.16 1014.76 1014.46 1014.44 1014.25 1014.02 1013.76 1013.61 1013.50 1013.36
1018.43 1017.97 1017.58 1017.21 1016.79 1016.38 1015.96 1015.58 1015.32 1015.09 1014.88 1014.65 1014.58 1014.50 1014.44 1014.60 1014.73 1015.01 1015.28 1015.45 1015.83 1016.14 1016.45 1016.70 1016.73 1016.72 1016.62 1016.34 1016.43 1016.44 1016.13 1015.76 1015.50 1014.85 1014.53 1014.28 1014.11 1013.96 1013.80 1013.55 1013.45 1013.40 1013.13
1018.34 1017.87 1017.38 1016.85 1016.40 1016.03 1015.49 1014.93 1014.56 1014.20 1013.94 1013.62 1013.43 1013.30 1013.16 1013.00 1012.98 1013.27 1013.77 1014.07 1014.58 1014.96 1015.41 1015.78 1016.04 1016.10 1016.06 1016.13 1016.16 1015.84 1015.73 1015.48 1015.22 1014.78 1014.59 1014.29 1014.06 1013.84 1013.65 1013.45 1013.34 1013.07 1012.75
1017.88 1017.44 1017.01 1016.55 1016.03 1015.45 1014.76 1014.20 1013.67 1013.19 1013.03 1012.82 1012.50 1012.14 1011.91 1011.73 1011.77 1011.89 1012.15 1012.52 1013.07 1013.68 1014.17 1014.63 1014.84 1015.13 1015.19 1015.29 1015.33 1015.32 1015.22 1015.37 1015.06 1014.55 1014.63 1014.12 1013.87 1013.51 1013.34 1013.20 1012.77 1012.33 1012.26
1017.50 1017.08 1016.56 1016.04 1015.51 1015.01 1014.25 1013.45 1012.77 1012.17 1011.78 1011.55 1011.39 1011.17 1010.87 1010.55 1010.48 1010.52 1010.63 1011.08 1011.64 1012.09 1012.42 1013.04 1013.45 1013.85 1014.19 1014.31 1014.52 1014.59 1014.65 1014.77 1014.53 1014.22 1014.39 1013.78 1013.50 1013.25 1012.87 1012.60 1012.28 1011.98 1011.57
1017.13 1016.61 1016.03 1015.54 1014.99 1014.42 1013.64 1012.95 1012.23 1011.51 1010.84 1010.28 1010.00 1009.80 1009.70 1009.56 1009.64 1009.62 1009.72 1009.95 1010.23 1010.67 1011.08 1011.55 1012.18 1012.41 1012.72 1013.13 1013.45 1013.51 1013.72 1013.89 1013.90 1013.78 1013.86 1013.76 1013.31 1013.05 1012.53 1012.28 1011.96 1011.61 1011.49
1016.67 1016.11 1015.54 1014.93 1014.38 1013.62 1012.89 1012.16 1011.59 1010.96 1010.25 1009.63 1009.12 1008.79 1008.60 1008.41 1008.17 1008.45 1008.79 1008.94 1009.44 1009.80 1010.19 1010.44 1011.04 1011.57 1011.83 1012.04 1012.35 1012.89 1013.11 1013.64 1013.59 1013.36 1013.35 1013.50 1013.26 1013.04 1012.43 1012.18 1011.92 1011.77 1011.68
1016.14 1015.53 1014.88 1014.46 1013.76 1012.86 1012.21 1011.56 1011.08 1010.44 1009.65 1009.06 1008.45 1007.93 1007.47 1007.24 1007.04 1007.14 1007.48 1008.03 1008.43 1008.86 1009.66 1010.12 1010.36 1010.58 1010.85 1011.27 1011.45 1011.93 1012.48 1013.10 1013.34 1013.19 1012.97 1013.35 1013.18 1013.17 1012.65 1012.16 1011.98 1011.95 1011.85
Wind_Speed
3 3 3 3 4 4 4 4 4 5 5 6 5 5 5 6 6 3 3 9 11 12 12 11 10 11 11 11 11 12 14 14 13 11 12 14 16 18 21 22 22 21 20
3 4 4 4 4 4 4 4 4 4 4 4 5 5 5 5 5 4 3 5 14 14 13 13 12 12 12 12 11 12 13 14 14 15 14 12 12 14 17 19 22 22 22
4 4 4 4 4 4 5 4 4 4 4 5 5 5 4 4 4 5 4 4 5 14 16 15 14 14 14 14 13 12 12 13 14 14 15 15 14 14 14 17 18 21 24
4 4 3 4 4 4 4 4 4 4 4 5 5 4 4 4 5 5 5 4 4 5 10 16 16 16 15 15 15 15 16 17 14 14 15 15 15 16 17 18 17 18 21
4 4 4 4 5 4 4 4 3 2 3 5 5 4 3 4 4 4 5 6 6 5 4 12 15 17 16 16 16 16 16 16 17 17 17 16 13 12 13 16 17 17 18
4 4 3 4 4 4 4 4 3 3 2 4 4 3 2 3 3 3 4 5 4 5 5 6 5 7 16 15 17 17 17 17 17 16 16 15 14 12 13 14 14 14 15
1 2 2 3 4 4 4 5 4 4 3 5 3 4 2 1 3 3 3 3 4 4 4 4 4 4 5 14 17 17 18 18 18 17 19 19 15 17 18 18 16 16 18
2 0 1 2 3 3 4 4 4 4 2 4 3 1 3 3 2 1 2 4 4 3 4 5 4 5 4 4 9 16 17 18 17 17 18 18 19 19 19 20 19 18 17
3 2 2 2 1 1 2 3 2 3 2 2 3 1 3 2 4 2 1 1 4 2 2 3 4 4 4 4 6 9 17 18 16 15 15 16 17 18 17 17 19 18 19
5 4 4 3 3 2 3 2 1 1 1 2 3 1 1 1 1 5 2 2 4 2 4 2 3 4 4 4 8 14 16 17 16 15 15 14 16 16 16 16 17 19 19
5 5 5 5 5 3 3 4 3 3 1 1 2 2 1 1 1 2 5 4 3 3 2 1 2 2 4 4 4 7 15 16 16 15 14 14 15 16 16 15 17 16 18
4 5 5 5 5 5 5 4 4 4 4 3 2 3 2 2 2 3 3 3 3 4 3 2 2 0 2 3 6 10 13 13 15 15 14 14 14 15 15 15 16 17 16
3 5 6 6 5 6 6 5 5 5 5 4 5 4 4 4 3 3 3 3 3 3 3 3 3 2 2 3 4 9 11 12 14 15 14 14 14 14 15 14 15 16 17
5 4 6 6 7 7 6 6 5 5 6 6 8 6 4 5 4 4 3 3 3 3 2 5 1 2 2 2 4 8 5 10 11 13 15 12 12 14 14 13 13 15 16
5 7 7 7 7 7 7 6 5 6 6 5 6 6 5 4 4 4 3 4 4 3 3 3 2 3 2 2 5 2 4 8 8 11 13 13 10 12 14 14 12 13 15
5 6 7 7 7 7 7 6 6 6 6 6 5 6 6 4 5 5 5 4 5 5 4 4 4 3 2 3 4 3 5 5 8 11 12 13 10 11 14 13 12 12 13
6 7 7 7 7 7 7 8 9 8 9 9 7 7 10 6 5 5 4 4 5 5 8 5 4 3 3 3 3 3 4 4 3 10 12 13 10 10 13 12 11 10 11
6 7 6 7 7 7 7 9 10 10 11 11 12 9 12 7 9 7 6 8 7 6 6 11 3 3 5 3 3 4 3 3 3 8 13 12 7 10 13 13 11 10 10
7 7 6 7 7 8 8 8 10 11 12 13 12 12 13 10 11 7 9 9 7 6 6 5 5 3 3 2 2 3 3 4 3 10 11 9 8 11 13 13 12 10 10
7 7 7 7 7 8 9 9 9 11 12 12 13 13 13 13 13 12 10 11 8 7 5 5 5 4 4 4 2 3 3 2 4 4 6 4 10 12 12 11 10 9 8
7 7 8 9 7 7 7 8 9 11 12 13 13 13 13 16 22 18 9 11 11 8 6 6 5 3 3 2 4 2 3 3 4 3 2 3 3 3 4 6 7 10 12
8 7 8 8 9 8 18 21 18 11 12 13 13 13 13 19 21 25 26 22 15 11 10 6 5 6 5 4 3 3 2 1 3 2 2 4 2 4 3 3 10 14 12
8 9 9 9 12 11 22 24 24 13 12 12 13 13 11 11 19 14 23 25 23 22 17 10 8 8 5 6 4 3 4 4 4 3 2 6 2 4 3 4 13 10 5
10 10 11 10 11 11 23 26 26 15 12 13 13 14 14 12 12 13 13 13 13 12 14 11 10 8 7 6 6 5 5 3 2 4 4 4 1 3 3 3 7 6 6
10 10 10 12 12 13 23 26 23 13 13 14 12 13 14 14 20 25 12 13 12 9 10 16 14 14 13 13 10 5 4 2 3 3 3 2 1 3 2 2 2 4 6
10 10 13 12 16 15 22 25 21 10 14 12 12 12 23 19 23 25 15 13 12 10 8 5 3 10 12 7 11 5 4 3 2 2 2 3 1 1 4 1 1 3 3
Wind_Direction
23 6 7 3 10 0 1 355 352 351 352 349 349 351 343 340 339 338 344 9 39 39 36 26 15 9 358 348 337 330 322 315 314 311 290 278 273 267 261 255 248 241 238
20 21 4 5 2 356 346 347 350 350 347 345 344 340 340 347 353 10 30 22 45 39 37 30 27 17 10 1 352 350 349 340 327 323 312 300 292 278 273 270 259 250 242
19 37 9 4 352 347 350 344 352 357 356 351 339 333 342 350 16 43 33 35 33 39 41 38 33 28 25 20 11 358 340 337 341 332 328 324 321 307 307 286 274 262 251
28 39 23 5 343 355 357 349 353 346 356 352 332 334 345 2 37 45 43 38 42 39 30 37 36 33 29 22 11 6 1 1 354 327 322 316 304 302 300 291 290 279 267
29 42 26 359 350 354 4 347 331 11 335 343 327 334 352 32 43 47 44 44 46 46 39 33 36 33 29 27 17 12 5 355 351 349 341 342 324 325 324 310 284 276 273
34 35 25 0 356 356 347 351 339 330 333 332 325 343 30 64 76 65 53 54 47 45 41 36 24 15 24 23 19 14 7 2 353 346 344 1 360 347 333 337 330 314 305
29 58 31 8 358 3 342 348 332 359 333 333 348 351 342 52 69 68 62 66 46 45 57 43 37 22 5 18 13 10 7 1 354 359 14 14 359 2 360 2 355 342 333
269 279 28 347 355 351 350 358 19 339 332 10 14 294 354 329 342 223 83 67 31 37 41 49 39 25 7 347 7 7 5 1 357 357 13 15 8 2 353 349 351 344 342
242 228 229 236 285 306 326 332 347 25 340 314 32 103 357 311 324 323 258 60 16 35 33 45 44 32 11 343 1 355 2 359 357 352 357 8 4 360 355 353 352 355 357
257 243 236 232 240 223 256 261 225 223 163 295 330 13 268 217 256 322 314 328 337 353 346 12 30 19 16 358 3 359 2 358 357 355 353 360 359 356 350 352 5 0 354
257 256 246 243 240 230 242 243 259 251 231 272 208 337 345 311 281 235 292 318 337 302 273 258 91 5 11 2 340 358 2 357 355 350 356 3 1 355 356 346 359 354 351
265 254 251 241 241 236 231 235 234 232 237 243 252 239 213 227 224 215 256 293 267 285 284 196 150 11 359 354 354 11 0 355 355 352 355 1 2 355 355 359 358 354 354
252 254 237 239 238 234 234 228 226 229 226 215 218 228 220 220 197 200 198 245 281 299 302 226 190 153 353 342 337 3 352 352 353 348 351 357 358 354 353 356 360 357 351
247 250 249 237 236 230 227 221 215 216 211 216 219 215 222 225 207 200 203 178 301 284 300 260 254 212 313 315 338 358 329 335 347 348 341 348 352 351 349 350 356 359 354
252 247 243 245 239 233 227 225 229 232 223 223 227 221 222 232 226 224 210 184 175 279 293 287 273 226 293 329 318 350 316 304 335 341 335 331 334 342 342 342 349 353 356
270 272 264 251 250 240 230 223 233 234 228 234 230 222 223 213 218 211 210 203 199 212 237 217 250 251 260 288 299 331 312 313 313 328 324 319 310 332 330 332 337 345 351
280 271 267 264 252 245 231 225 233 232 222 236 226 219 235 204 221 213 204 202 211 195 234 267 233 234 271 279 306 303 292 278 287 315 318 316 301 326 326 327 327 339 345
304 286 285 275 267 253 243 228 238 237 224 230 232 215 233 215 223 212 206 216 215 199 211 250 241 245 232 246 269 281 286 274 284 300 309 313 299 310 319 316 314 322 335
315 309 293 283 277 268 257 243 236 243 233 233 230 218 227 205 223 212 212 219 215 216 204 218 258 226 252 248 288 272 267 275 270 296 305 293 307 313 312 306 300 316 317
313 311 303 286 277 275 268 260 246 243 242 240 236 229 226 213 219 214 214 217 214 213 200 221 238 248 230 246 229 256 285 251 283 287 302 235 311 315 312 302 303 308 303
310 296 301 307 295 287 280 273 257 253 248 247 240 235 230 222 219 214 205 211 205 207 207 218 232 214 223 227 228 223 248 265 272 230 262 277 285 290 295 302 297 300 303
308 308 308 302 301 298 302 302 295 270 251 248 250 243 237 232 229 227 224 219 206 200 212 205 220 223 226 209 210 222 225 286 313 196 221 275 242 276 278 262 292 309 295
305 305 304 304 304 299 302 302 298 288 274 248 246 249 242 234 226 219 228 226 223 218 214 202 213 209 205 200 197 212 219 212 238 254 202 280 216 270 269 272 309 300 307
304 299 294 287 290 293 299 304 303 294 281 266 242 240 239 238 224 213 213 216 218 218 217 216 210 215 206 195 198 205 211 234 266 255 193 263 190 262 267 267 293 324 62
301 299 298 298 296 296 300 306 309 302 290 279 264 242 236 233 231 228 211 210 214 219 224 231 215 217 221 228 223 204 205 189 266 234 202 238 260 278 272 296 314 329 324
295 302 301 295 290 294 294 302 308 297 298 292 280 255 245 237 237 229 209 204 209 212 197 205 223 241 232 240 252 181 173 190 186 301 210 184 209 343 327 272 269 278 286